Notices

What's New in latest Release from April 7th, 2021:

- Updated Glossary, including Speed of Maximum Gust, and Total Hourly Precipitation

- Updated national and regional climate services offices contacts and prices information

- Addition of station inventory lists for 1981-2010, 1971-2000, and 1961-1990 Normals.

If you haven't already, please take our survey and provide feedback about our website: https://eccc.sondage-survey.ca/f/LanguageSelection.aspx?s=442ca660-fcf1-47c0-95a9-59707d6fd709

Hourly Data Report for July 03, 2020

TORONTO CITY
ONTARIO
Current Station Operator: ECCC - MSC

43°40'00.000" N
79°24'00.000" W
112.50 m
6158355
71508
XTO

Download Data

Hourly Data (July 2020)
Hourly Data Report for July 3, 2020
TIME
LST
Temp Definition
°C
Dew Point Definition
°C
Rel Hum Definition
%
Precip. Amount Definition
mm

Wind Dir Definition
10's deg

Wind Spd Definition
km/h
Visibility Definition
km
Stn Press Definition
kPa
Hmdx Definition


Wind Chill Definition


Weather Definition


00:00 25.6 11.3 41 0.0       99.93 28   LegendNANA
01:00 24.5 12.1 46 0.0       99.90 27   LegendNANA
02:00 23.3 12.5 51 0.0       99.90 26   LegendNANA
03:00 22.5 13.1 55 0.0       99.91 25   LegendNANA
04:00 22.7 13.7 57 0.0       99.91 26   LegendNANA
05:00 23.3 14.0 56 0.0       99.92 27   LegendNANA
06:00 23.7 14.4 56 0.0       99.96 27   LegendNANA
07:00 24.3 15.6 58 0.0       99.99 29   LegendNANA
08:00 26.5 15.9 52 0.0       100.02 31   LegendNANA
09:00 28.3 17.2 51 0.0       100.02 34   LegendNANA
10:00 30.3 17.1 45 0.0       100.05 36   LegendNANA
11:00 30.3 16.2 43 0.0       100.05 35   LegendNANA
12:00 31.2 17.2 43 0.0       100.06 37   LegendNANA
13:00 31.5 15.9 39 0.0       100.01 36   LegendNANA
14:00 32.0 16.1 39 0.0       99.95 37   LegendNANA
15:00 32.2 15.1 36 0.0       99.92 36   LegendNANA
16:00 32.4 14.4 34 0.3       99.90 36   LegendNANA
17:00 31.6 16.2 39 0.3       99.88 36   LegendNANA
18:00 30.7 16.7 43 0.0       99.91 36   LegendNANA
19:00 29.3 16.5 46 0.0       99.91 34   LegendNANA
20:00 28.1 15.0 45 0.0       99.94 32   LegendNANA
21:00 27.1 13.8 44 0.0       100.00 30   LegendNANA
22:00 26.3 14.0 47 0.0       100.04 30   LegendNANA
23:00 25.5 14.6 51 0.0       100.01 29   LegendNANA

Notes on Data Quality.

Legend

  • E = Estimated
  • M = Missing
  • NA = Not Available*
  • [empty] = Indicates an unobserved value
Date modified: